Regional Weather Roundup
Issued by NWS

Home | Current Version | Previous Version | Graphics & Text | Print | Product List | Glossary On
Versions: 1 2 3 4 5 6 7 8 9 10 11 12 13 14 15 16 17 18 19 20 21 22 23 24 25 26 27
000
ASUS45 KSLC 300610
RWRUT

UTAH REGIONAL WEATHER ROUNDUP
NATIONAL WEATHER SERVICE SALT LAKE CITY UT
1200 AM MDT THU MAR 30 2017

UTZ001>011-023>025-300700-

NORTHERN UTAH

CITY           SKY/WX    TMP DP  RH WIND       PRES   REMARKS
BRIGHAM CITY   CLOUDY    50  37  61 NW5       30.02F
HILL AFB       CLOUDY    49  33  53 CALM      30.02F
LOGAN          CLOUDY    49  37  63 N5        30.02F
OGDEN          CLOUDY    49  32  52 S6        30.01F
SALT LAKE CITY MOCLDY    51  35  54 SE7       30.01F
TOOELE VALLEY  PTCLDY    48  37  66 SW14      30.01F
WENDOVER       CLOUDY    52  35  52 CALM      30.00S
HEBER CITY     CLOUDY    43  32  65 CALM      30.05F
WEST JORDAN    CLOUDY    53  41  65 S10       30.02F

$$

UTZ011>015-024>027-300700-

CENTRAL/NORTHEAST UTAH

CITY           SKY/WX    TMP DP  RH WIND       PRES   REMARKS
PROVO AIRPORT  CLOUDY    48  38  68 SE6       30.05F
MOAB/CANYONLAN CLEAR     44  20  38 CALM      30.00S
DELTA          PTCLDY    37  36  93 S8        30.05F WCI  31
PRICE          MOCLDY    45  29  53 N10       30.04F
ROOSEVELT      CLOUDY    43  34  70 CALM      30.04S
VERNAL         CLOUDY    41  32  70 CALM      30.02F

$$

UTZ013>016-019>022-027-300700-

SOUTHERN UTAH

CITY           SKY/WX    TMP DP  RH WIND       PRES   REMARKS
BRYCE CANYON   CLEAR     35  26  69 N7        30.14F WCI  29
CEDAR CITY     CLEAR     42  29  59 SE6       30.09F
MILFORD        CLEAR     40  33  76 S3        30.07F
ST GEORGE      MOCLDY    58  29  33 CALM      30.01F
HANKSVILLE     PTCLDY    45  19  36 CALM      30.05S
BLANDING       CLEAR     40  19  42 W6        30.13S

$$

REGIONAL REPORTS     COLORADO/ARIZONA

CITY           SKY/WX    TMP DP  RH WIND       PRES   REMARKS
CRAIG, CO      CLOUDY    31  26  82 SE5       30.05F WCI  26
GRAND JUNCTION CLEAR     42  30  62 NE5       30.02F
RIFLE, CO      CLEAR     39  26  59 SE6       30.05F WCI  35
MONTROSE, CO   CLEAR     41  31  67 SE10      30.09S
CORTEZ, CO     CLEAR     36  26  67 E6        30.09R WCI  31
COLORADO CITY    N/A     41  30  65 E5        30.11S
PAGE, AZ       CLEAR     56  23  27 W3        30.03S
GRAND CANYON   CLEAR     31  25  78 CALM      30.16S
KINGMAN, AZ    CLEAR     47  15  27 E7        30.05F
FLAGSTAFF, AZ  CLEAR     32  20  61 CALM      30.17R

$$

REGIONAL REPORTS    NEVADA/IDAHO/WYOMING

CITY           SKY/WX    TMP DP  RH WIND       PRES   REMARKS
LAS VEGAS, NV  MOCLDY    65  27  23 SW5       29.98S
ELY, NY        CLOUDY    42  33  70 S6        30.10R
ELKO, NV       CLOUDY    51  38  60 S6        30.03S
POCATELLO, ID  CLOUDY    50  36  58 S20G29    29.94F
BURLEY, ID     CLOUDY    50  41  71 W9        29.92S
EVANSTON, WY   CLOUDY    40  26  57 SW12      30.06F WCI  33
ROCK SPRINGS,  CLOUDY    42  30  62 W14       30.02F
KEMMERER, WY     N/A     34  30  86 SW8       30.05F WCI  27

$$




USA.gov is the U.S. government's official web portal to all federal, state and local government web resources and services.